Regional Weather Roundup
Issued by NWS

Home | Current Version | Previous Version | Graphics & Text | Print | Product List | Glossary On
Versions: 1 2 3 4 5 6 7 8 9 10 11 12 13 14 15 16 17 18 19 20 21 22 23 24 25 26 27 28 29 30 31 32 33 34 35 36 37 38 39 40 41 42 43 44 45 46 47 48 49 50
852
ASUS43 KLOT 261108
RWRIL

ILLINOIS REGIONAL WEATHER ROUNDUP
NATIONAL WEATHER SERVICE CHICAGO/ROMEOVILLE IL
600 AM CDT TUE JUL 26 2016

NOTE: "FAIR" INDICATES FEW OR NO CLOUDS BELOW 12,000 FEET WITH NO
SIGNIFICANT WEATHER AND/OR OBSTRUCTIONS TO VISIBILITY.

* THESE STATIONS ARE NOT UNDER NWS QUALITY CONTROL. THEY ALSO MAY NOT
  REPORT WEATHER SUCH AS PRECIPITATION OR FOG.

ILZ001-002-007-009-015-016-024-261200-
NORTHWEST ILLINOIS

CITY           SKY/WX    TMP DP  RH WIND       PRES   REMARKS
MOLINE         PTCLDY    65  62  90 CALM      30.06R
STERLING*      PTCLDY    65  64  97 E3        30.07R
SAVANNA*       CLEAR     65  64  96 CALM      30.07S
$$

ILZ003-004-008-010-011-017-018-261200-
NORTH CENTRAL ILLINOIS

CITY           SKY/WX    TMP DP  RH WIND       PRES   REMARKS
ROCKFORD       PTCLDY    67  65  93 CALM      30.08R
FREEPORT*      CLEAR     61  60  97 CALM      30.10R FOG
ROCHELLE*      CLEAR     64  64 100 CALM      30.08R
DE KALB*       CLEAR     66  64  90 N7        30.08S
$$

ILZ005-006-012>014-019>023-261200-
NORTHEAST ILLINOIS

CITY           SKY/WX    TMP DP  RH WIND       PRES   REMARKS
CHICAGO-OHARE  PTCLDY    71  65  81 N5        30.06R
CHICAGO-MIDWAY PTCLDY    73  64  73 CALM      30.05R
AURORA         CLEAR     65  63  93 CALM      30.07R FOG
LANSING*       CLOUDY    68  65  88 CALM      30.06R
JOLIET*        PTCLDY    69  67  94 CALM      30.06R
WAUKEGAN       CLEAR     67  64  90 NW5       30.06R
DUPAGE AIRPORT PTCLDY    65  62  90 N3        30.06R
KANKAKEE*      FOG       67  66  96 CALM      30.06S VSB 1/4
WHEELING       PTCLDY    69  64  84 CALM      30.07R
MORRIS*        CLOUDY    67  65  94 CALM      30.04S
ROMEOVILLE*    PTCLDY    68  64  86 CALM      30.06R
NORTHERLY ISL    N/A     70  63  78 CALM        N/A
$$

LMZ740>746-261200-
SOUTHERN LAKE MICHIGAN

STATION/POSITION SKY/WX   TEMP    WIND        PRES    VSBY  WAVE
                          AIR SEA DIR/SP/G                  HT/PER
                          (F)     (DEG/KT/KT) (MB)    (MI)  (FT/S)
SOUTHERN BUOY              74 73  260/  6/  8 1017.1R         0
WILMETTE HARBOR            69 67   50/  2/  2   N/A           0
HARRISON CRIB              77     290/  1/  1   N/A
BURNHAM HARBOR             70        CALM       N/A
CALUMET HARBOR             70     320/  2/  2 1016.9R
BURNS HARBOR               72        CALM     1017.9R
MICHIGAN CITY              71     110/  3/  3   N/A
MICHIGAN CITY 6N           74 74  120/  2/  4   N/A           0
ST. JOSEPH                 72 75   CALM  /  2 1017.8R         0
$$

ILZ025>027-034>036-040-047-049-050-058-095>099-261200-
WEST-CENTRAL ILLINOIS

CITY           SKY/WX    TMP DP  RH WIND       PRES   REMARKS
QUINCY         CLEAR     66  65  96 NE5       30.05R
GALESBURG*     PTCLDY    63  63  99 CALM      30.06S
MACOMB*        CLEAR     62  62  97 CALM      30.08R
JACKSONVILLE*  PTCLDY    71  69  93 N5        30.04F
PITTSFIELD*    PTCLDY    69  67  96 CALM      30.06S
$$

ILZ028>032-037-038-041>044-048-051>054-059>061-261200-
CENTRAL ILLINOIS

CITY           SKY/WX    TMP DP  RH WIND       PRES   REMARKS
BLOOMINGTON    CLEAR     70  66  87 CALM      30.06S
DECATUR        CLOUDY    72  69  90 NE5       30.04S
PEORIA         CLEAR     69  67  93 CALM      30.05S
LACON*         CLEAR     65  64  96 CALM      30.05R
LINCOLN*       PTCLDY    69  68  98 CALM      30.05R
SPRINGFIELD    PTCLDY    72  70  93 N5        30.04S
TAYLORVILLE    CLOUDY    72  71  97 MISG      30.03S
$$

ILZ033-039-045-046-055>057-062-063-261200-
EAST-CENTRAL ILLINOIS

CITY           SKY/WX    TMP DP  RH WIND       PRES   REMARKS
CHAMPAIGN      CLOUDY    73  69  87 NE7       30.04F
MATTOON        LGT RAIN  74  71  91 NE3       30.02S
PARIS*         CLOUDY    72  70  92 CALM      30.04S
$$

ILZ079-100>102-261200-
SOUTHWEST ILLINOIS

CITY           SKY/WX    TMP DP  RH WIND       PRES   REMARKS
ALTON          CLOUDY    74  73  96 CALM      30.02S
BELLEVILLE     CLOUDY    76  76 100 CALM      30.00R
CAHOKIA*       CLOUDY    78  74  87 N3        30.01R HX  81
SPARTA*        CLOUDY    76  75  96 CALM      30.02S
$$

ILZ064>066-069>071-074>076-080>082-084>086-088>090-092>094-261200-
SOUTH-CENTRAL ILLINOIS

CITY           SKY/WX    TMP DP  RH WIND       PRES   REMARKS
CARBONDALE     CLOUDY    77  75  93 CALM      30.00S FOG
CAIRO*         FOG       73  73 100 CALM      30.00S VSB 1/2
EFFINGHAM*     TSTM      72  72 100 NE6       30.04R
MARION         CLOUDY    77  77 100 CALM      30.02R FOG
MT. VERNON     CLOUDY    73  70  88 CALM      30.01R VSB 1/4
CENTRALIA*     CLOUDY    76  76  99 CALM      30.01R
SALEM*         HVY RAIN  74  72  92 NE8       30.02R
METROPOLIS*    CLOUDY    74  74  98 CALM      30.01S FOG
$$

ILZ067-068-072-073-078-083-087-091-261200-
SOUTHEAST ILLINOIS

CITY           SKY/WX    TMP DP  RH WIND       PRES   REMARKS
LAWRENCEVILLE  CLOUDY    76  76 100 CALM      30.02R FOG
FLORA*         FOG       75  74  98 CALM      30.02R VSB 1/4
FAIRFIELD*     FOG       74  74 100 CALM      30.01R VSB 3/4
HARRISBURG*    FOG       73  73 100 CALM      30.01S VSB 1/4
ROBINSON*      CLOUDY    73  73  99 CALM      30.02S
CARMI*         FOG       73  73 100 CALM      30.00S VSB 1
$$

ABBREVIATIONS USED IN REMARKS
   TC - TEMPERATURE IN CELSIUS
  WCI - WIND CHILL INDEX
   HX - HEAT INDEX
  VSB - VISIBILITY
$$





USA.gov is the U.S. government's official web portal to all federal, state and local government web resources and services.